Home   Weather   Jalalabad   Past weeks
Flag for Afghanistan

Past Weather in Jalalabad, Afghanistan — Yesterday and Last 2 Weeks

Now
79 °F

Partly cloudy.


Feels Like: 80 °F
Forecast: 81 / 60 °F
Wind: 7 mph from Southeast

Location: Peshawar Airport

Current Time: Oct 22, 2019 at 6:41:33 pm

Latest Report: Oct 22, 2019 at 6:00 pm


Visibility: 2 mi

Pressure: 29.83 "Hg (27.94 "Hg at 572m altitude)

Humidity: 48%

Dew Point: 57 °F

Location of JalalabadLocation

Past Weather in Jalalabad — Graph

°F

Jalalabad Temperature Yesterday

Maximum temperature yesterday: 82 °F (at 1:30 pm)
Minimum temperature yesterday: 61 °F (at 4:29 am)
Average temperature yesterday: 72 °F

High & Low Weather Summary for the Past Weeks

 TemperatureHumidityPressure
High102 °F (Oct 15, 4:30 pm)88% (Oct 17, 5:30 pm)30.15 "Hg (Oct 17, 5:30 pm)
Low61 °F (Oct 21, 4:29 am)27% (Oct 8, 12:30 pm)29.80 "Hg (Oct 15, 4:30 pm)
Average76 °F57%29.96 "Hg
* Reported Oct 7 4:30 pm — Oct 22 5:00 pm, Jalalabad. Weather by CustomWeather, © 2019

Note: Actual official high and low records may vary slightly from our data, if they occured in-between our weather recording intervals... More about our weather records

Advertising

Jalalabad Weather History for the Previous 24 Hours

Scroll right to see more
 ConditionsComfort  
Time TempWeatherWind HumidityBarometerVisibility
5:00 pm
Tue, Oct 22
82 °FPartly sunny.5 mph42%29.80 "Hg2 mi
4:30 pm82 °FPartly sunny.5 mph42%29.80 "Hg2 mi
4:00 pm82 °FPartly sunny.5 mph42%29.80 "Hg2 mi
3:30 pm82 °FPartly sunny.5 mph42%29.80 "Hg2 mi
3:00 pm86 °FHaze.5 mph40%29.83 "Hg2 mi
2:30 pm86 °FHaze.5 mph40%29.83 "Hg2 mi
2:00 pm84 °FScattered clouds.5 mph43%29.83 "Hg2 mi
1:00 pm84 °FScattered clouds.5 mph43%29.86 "Hg2 mi
12:30 pm84 °FScattered clouds.5 mph43%29.86 "Hg2 mi
12:00 pm82 °FScattered clouds.5 mph45%29.92 "Hg2 mi
11:30 am77 °FScattered clouds.5 mph51%29.95 "Hg2 mi
11:00 am77 °FScattered clouds.No wind51%29.95 "Hg2 mi
10:30 am77 °FScattered clouds.No wind51%29.95 "Hg2 mi
10:00 am77 °FScattered clouds.No wind51%29.95 "Hg2 mi
9:30 am77 °FScattered clouds.No wind51%29.95 "Hg2 mi
9:00 am72 °FScattered clouds.7 mph57%29.95 "Hg2 mi
8:30 am72 °FScattered clouds.7 mph57%29.95 "Hg2 mi
8:00 am66 °FScattered clouds.7 mph64%29.95 "Hg2 mi
7:30 am66 °FScattered clouds.7 mph64%29.95 "Hg2 mi
7:00 am66 °FScattered clouds.7 mph64%29.95 "Hg2 mi
6:30 am63 °FScattered clouds.7 mph73%29.92 "Hg2 mi
6:00 am63 °FScattered clouds.No wind73%29.92 "Hg2 mi
5:30 am63 °FPassing clouds.No wind73%29.92 "Hg2 mi
5:00 am63 °FHaze.No wind68%29.92 "Hg2 mi
4:30 am63 °FHaze.No wind68%29.92 "Hg2 mi
4:00 am64 °FHaze.No wind68%29.92 "Hg2 mi
3:30 am64 °FHaze.No wind68%29.92 "Hg2 mi
3:00 am64 °FHaze.No wind68%29.92 "Hg2 mi
2:30 am64 °FHaze.No wind68%29.92 "Hg2 mi
1:30 am64 °FHaze.5 mph73%29.92 "Hg2 mi
11:30 pm
Mon, Oct 21
66 °FClear.7 mph68%29.95 "Hg2 mi
11:00 pm66 °FClear.7 mph68%29.95 "Hg2 mi
10:30 pm66 °FClear.7 mph68%29.95 "Hg2 mi
10:00 pm68 °FClear.5 mph64%29.95 "Hg2 mi
9:30 pm68 °FClear.5 mph64%29.95 "Hg2 mi
9:00 pm70 °FClear.5 mph60%29.95 "Hg2 mi
8:30 pm70 °FClear.5 mph60%29.95 "Hg2 mi
8:00 pm73 °FHaze.5 mph53%29.95 "Hg2 mi
7:30 pm73 °FHaze.5 mph53%29.95 "Hg2 mi
7:00 pm75 °FHaze.5 mph50%29.92 "Hg2 mi
6:30 pm75 °FHaze.5 mph50%29.92 "Hg2 mi
6:00 pm75 °FHaze.5 mph50%29.92 "Hg2 mi
Weather by CustomWeather, © 2019

See weather overview